User: anonymous   Login
Location: SAPM � Hemmingford
(45.0500°N, 73.5833°W)
Time: 07:58:23
(UTC-05:00)
Language:

Iridium 75 - Orbit

View from above orbital plane
View from above orbital plane
View from above satellite
View from above satellite

Ground track
Ground track

The orbit data is extracted from the following two-line orbital elements,

1 25346U 98032E   14325.48721363  .00000678  00000-0  23488-3 0   744
2 25346 086.3981 256.4270 0002155 099.8533 011.7726 14.34216890865127
Epoch (UTC): 21 November 2014 11:41:35
Eccentricity: 0.0002155
inclination: 86.3981°
perigee height: 776 km
apogee height: 779 km
right ascension of ascending node: 256.4270°
argument of perigee: 99.8533°
revolutions per day: 14.34216890
mean anomaly at epoch: 11.7726°
orbit number at epoch: 86512

The dashed part of the orbit path shows where the satellite is in the earth's shadow,  

DLR